Location: Forst
(46.9333°N, 15.4333°E)
Time: 19:22:49
(UTC+00:00)

NOSS 3-2 (A) - Pass Details

Date: 01 December 2020
Orbit: 789 x 1419 km, 63.4° (Epoch: 22 January)

Event Time Altitude Azimuth Distance (km) Brightness Sun altitude
Rises 18:34:14 0° 238° (WSW) 3,375 7.0 -33.9°
Reaches altitude 10° 18:36:37 10° 243° (WSW) 2,497 6.3 -34.3°
Enters shadow 18:41:26 48° 294° (WNW) 1,200 4.2 -35.1°
